TG9ADI-20 Weather Reports


time (UTC)temp
C
wind
direction
speed
KPH
gust
KPH
rain 1hr
cm
rain 24hr
cm
rain mn
cm
humidity
%
barometer
mb
20260502195552 28 180 20.9 0.0 0.00 0.00 0.00 68 1009.0
20260502194551 28 180 20.9 0.0 0.00 0.00 0.00 68 1010.0
20260502193550 28 180 20.9 0.0 0.00 0.00 0.00 68 1010.0
20260502192550 28 180 20.9 0.0 0.00 0.00 0.00 60 1011.0
20260502191549 28 180 20.9 0.0 0.00 0.00 0.00 42 1011.0
20260502190548 27 180 14.5 0.0 0.00 0.00 0.00 68 1011.0
20260502185548 27 180 14.5 0.0 0.00 0.00 0.00 68 1011.0
20260502184547 27 180 14.5 0.0 0.00 0.00 0.00 68 1011.0
20260502183547 28 180 14.5 0.0 0.00 0.00 0.00 68 1011.0
20260502182546 27 180 14.5 0.0 0.00 0.00 0.00 68 1012.0
20260502181545 27 180 14.5 0.0 0.00 0.00 0.00 42 1012.0
20260502180545 25 160 9.7 0.0 0.00 0.00 0.00 47 1012.0
20260502163537 24 164 6.4 6.4 0.00 0.00 0.00 50 1013.0
20260502162537 24 128 8.0 20.9 0.00 0.00 0.00 50 1014.0
20260502161536 24 158 4.8 17.7 0.00 0.00 0.00 50 1015.0
20260502160536 22 180 14.5 0.0 0.00 0.00 0.00 56 1014.0
20260502151532 22 180 14.5 0.0 0.00 0.00 0.00 56 1015.0
20260502150532 22 180 14.5 0.0 0.00 0.00 0.00 56 1015.0
20260502130524 18 200 6.4 0.0 0.00 0.00 0.00 82 1015.0
20260502123522 16 140 1.6 11.3 0.00 0.00 0.00 96 1014.0
20260502122521 16 138 4.8 12.9 0.00 0.00 0.00 96 1014.0
20260502121521 16 155 4.8 12.9 0.00 0.00 0.00 97 1014.0
20260502120520 16 172 6.4 17.7 0.00 0.00 0.00 97 1014.0
20260502115519 16 184 8.0 17.7 0.00 0.00 0.00 10 1014.0
20260502114519 15 188 8.0 22.5 0.00 0.00 0.00 98 1014.0
20260502113518 16 188 11.3 17.7 0.00 0.00 0.00 10 1014.0
20260502112517 15 194 12.9 20.9 0.00 0.00 0.00 96 1014.0
20260502111517 15 200 8.0 0.0 0.00 0.00 0.00 96 1014.0
20260502110516 15 200 8.0 0.0 0.00 0.00 0.00 96 1014.0
20260502105516 16 205 12.9 17.7 0.00 0.00 0.00 93 1014.0
20260502104515 16 205 12.9 17.7 0.00 0.00 0.00 93 1014.0
20260502103514 17 168 12.9 24.1 0.00 0.00 0.00 93 1014.0
20260502102514 15 216 12.9 24.1 0.00 0.00 0.00 96 1013.0
20260502101513 15 179 12.9 20.9 0.00 0.00 0.00 96 1013.0
20260502100512 16 179 16.1 22.5 0.00 0.00 0.00 93 1013.0
20260502091510 17 229 12.9 24.1 0.00 0.00 0.00 93 1013.0
20260502090509 15 193 12.9 29.0 0.00 0.00 0.00 98 1013.0
20260502071502 16 180 20.9 0.0 0.00 0.00 0.00 96 1014.0
20260502070501 17 180 20.9 0.0 0.00 0.00 0.00 93 1014.0
20260502065500 16 180 20.9 0.0 0.00 0.00 0.00 97 1014.0
20260502064500 16 180 20.9 0.0 0.00 0.00 0.00 97 1014.0
20260502063459 17 180 20.9 0.0 0.00 0.00 0.00 93 1013.0
20260502062459 16 180 20.9 0.0 0.00 0.00 0.00 98 1014.0
20260502061458 16 180 20.9 0.0 0.00 0.00 0.00 97 1014.0
20260502060457 16 200 17.7 33.8 0.00 0.00 0.00 10 1014.0
20260502055457 16 211 17.7 29.0 0.00 0.00 0.00 10 1014.0
20260502054456 16 188 16.1 27.4 0.00 0.00 0.00 10 1014.0
20260502053455 16 188 16.1 27.4 0.00 0.00 0.00 10 1014.0
20260502052455 16 192 12.9 22.5 0.00 0.00 0.00 10 1014.0
20260502051454 17 221 17.7 27.4 0.00 0.00 0.00 10 1014.0
20260502050453 17 186 12.9 22.5 0.00 0.00 0.00 10 1014.0
20260502045453 17 189 16.1 27.4 0.00 0.00 0.00 10 1014.0
20260502044452 17 196 12.9 22.5 0.00 0.00 0.00 10 1014.0
20260502043452 17 207 8.0 24.1 0.00 0.00 0.00 10 1014.0
20260502042451 17 153 11.3 24.1 0.00 0.00 0.00 10 1014.0
20260502041450 17 173 8.0 17.7 0.00 0.00 0.00 10 1014.0
20260502040450 17 119 8.0 22.5 0.00 0.00 0.00 10 1014.0
20260502035449 17 149 11.3 29.0 0.00 0.00 0.00 10 1014.0
20260502034449 17 184 8.0 29.0 0.00 0.00 0.00 10 1014.0
20260502033448 16 180 24.1 0.0 0.00 0.00 0.00 97 1014.0
20260502032447 16 180 24.1 0.0 0.00 0.00 0.00 97 1013.0
20260502031447 18 180 24.1 0.0 0.00 0.00 0.00 96 1013.0
20260502030446 18 180 24.1 0.0 0.00 0.00 0.00 96 1013.0
20260502025445 18 156 11.3 24.1 0.00 0.00 0.00 10 1013.0
20260502024445 17 198 17.7 29.0 0.00 0.00 0.00 10 1013.0
20260502023444 17 136 11.3 24.1 0.00 0.00 0.00 10 1013.0
20260502022444 18 161 12.9 27.4 0.00 0.00 0.00 10 1013.0
20260502021443 18 161 12.9 27.4 0.00 0.00 0.00 10 1013.0
20260502020443 17 142 12.9 29.0 0.00 0.00 0.00 10 1013.0
20260502015442 17 166 8.0 24.1 0.00 0.00 0.00 10 1013.0
20260502014440 18 130 8.0 22.5 0.00 0.00 0.00 10 1013.0
20260502013439 18 143 11.3 22.5 0.00 0.00 0.00 10 1013.0
20260502012439 17 209 8.0 12.9 0.00 0.00 0.00 10 1012.0
20260502011438 18 188 11.3 20.9 0.00 0.00 0.00 10 1012.0
20260502010438 18 178 12.9 17.7 0.00 0.00 0.00 10 1012.0
20260502005437 18 153 8.0 27.4 0.00 0.00 0.00 10 1012.0
20260502004436 18 150 8.0 29.0 0.00 0.00 0.00 10 1012.0
20260502003436 19 196 12.9 29.0 0.00 0.00 0.00 10 1012.0
20260502002435 19 119 12.9 22.5 0.00 0.00 0.00 10 1010.0
20260502001435 20 173 12.9 24.1 0.00 0.00 0.00 10 1010.0
20260502000434 20 128 11.3 27.4 0.00 0.00 0.00 10 1010.0
20260501235433 20 192 12.9 24.1 0.00 0.00 0.00 10 1010.0
20260501234433 20 220 32.2 0.0 0.00 0.00 0.00 90 1010.0
20260501233432 21 220 32.2 0.0 0.00 0.00 0.00 88 1010.0
20260501232431 21 220 32.2 0.0 0.00 0.00 0.00 86 1009.0
20260501231431 22 220 32.2 0.0 0.00 0.00 0.00 85 1009.0
20260501230430 22 220 32.2 0.0 0.00 0.00 0.00 85 1009.0
20260501225430 23 220 32.2 0.0 0.00 0.00 0.00 79 1009.0
20260501224429 23 220 32.2 0.0 0.00 0.00 0.00 77 1009.0
20260501223428 23 220 32.2 0.0 0.00 0.00 0.00 77 1009.0
20260501222428 23 220 32.2 0.0 0.00 0.00 0.00 79 1009.0
20260501221427 24 220 32.2 0.0 0.00 0.00 0.00 79 1009.0
20260501220426 23 249 16.1 33.8 0.00 0.00 0.00 10 1009.0
20260501215426 23 200 29.0 0.0 0.00 0.00 0.00 86 1009.0
20260501214425 23 200 29.0 0.0 0.00 0.00 0.00 86 1009.0
20260501213425 24 200 29.0 0.0 0.00 0.00 0.00 84 1009.0
20260501212424 24 200 29.0 0.0 0.00 0.00 0.00 83 1009.0
20260501211423 26 200 29.0 0.0 0.00 0.00 0.00 75 1009.0
20260501210423 26 200 29.0 0.0 0.00 0.00 0.00 75 1009.0
20260501205422 24 233 17.7 29.0 0.00 0.00 0.00 10 1009.0
20260501204421 24 223 12.9 27.4 0.00 0.00 0.00 10 1009.0
20260501203421 24 163 11.3 24.1 0.00 0.00 0.00 10 1009.0
20260501202420 24 155 8.0 24.1 0.00 0.00 0.00 10 1009.0
20260501201419 24 170 8.0 24.1 0.00 0.00 0.00 10 1009.0